Airfield :







YOU CAN JOIN US ON...

 
LOGIN :

Register | Disclaimer

   EN    FR    IT 

 









Legend :    VFR   Marginal VFR   IFR   Intensive IFR   Very Intensive IFR
Visi :
Ceiling :
>= 8 km
>= 3000ft
5 to 8 km
1000 to 3000 ft
1500m to 5 km
500 to 1000 ft
800 to 1500m
200 to 500 ft
< 800m
< 200 ft
Symbols :   Thunderstorms  Fog  Heavy snow  Heavy precipitations  Wind > 20 kt






- Airport Elevation : 334 ft
- AIRPORT CLOSED.


KCWN - White Mountain

CURRENT METAR :
  • 162058Z AUTO 16007KT 10SM SCT100 BKN110 14/M09 A2998 RMK AO2 SLP003 T01411092 57023 $

EXPIRED METARs :
  • 161958Z AUTO 00000KT 10SM BKN095 16/M10 A3000 RMK AO2 SLP005 T01591097 $
  • 161858Z AUTO 12005KT 10SM FEW210 16/M09 A3002 RMK AO2 SLP017 T01641092 $

TAF N/A



MET'MAP, your aeronautical weather chart ! - Copyright ORBIFLY December 2007 - Disclaimer

ORBIFLY MET'MAP TEAM :

Programming & Development : Alexandra Zaïnal
Concept & Development : Baudouin d'Aumeries
Co-Development & Prog : Marc-Olivier Méhu
Technical & hardware support : Manuel Goepfert

Contact : metmap@orbifly.com




SOURCES & CREDITS :

   NOAA